Wind_Speed
14 14 14 15 15 15 15 16 15 15 15 15 16 16 16 16 17 17 18 18 18 18 19 19 20 20 21 21 20 19 20 20 20 19 19 19 19 18
15 15 15 16 17 17 17 17 16 16 16 16 17 18 18 18 19 18 18 18 18 18 18 19 20 20 21 21 21 21 21 21 21 21 20 19 19 19
16 17 18 18 18 18 19 19 18 17 17 18 19 19 20 20 19 19 19 19 19 19 19 19 20 20 21 21 21 21 22 23 22 22 21 20 20 20
18 19 19 19 19 19 20 21 20 19 19 19 20 21 21 21 20 21 20 20 19 19 20 20 20 21 21 21 22 22 23 23 22 22 22 21 22 21
20 20 20 20 20 20 21 21 21 22 21 21 22 22 22 21 21 21 21 20 20 20 21 22 21 21 22 22 21 22 22 23 23 22 22 22 22 22
22 21 21 21 22 22 22 21 22 23 23 23 23 23 22 22 21 21 21 21 21 21 21 22 22 22 22 21 21 20 21 22 22 21 22 22 22 22
23 22 22 22 23 23 22 23 23 24 24 24 24 24 24 23 22 22 22 22 22 22 22 21 21 21 21 20 20 19 20 20 21 21 22 22 22 22
23 23 24 24 24 24 24 24 24 25 25 24 25 25 24 23 23 23 23 23 23 23 22 22 21 21 21 20 19 19 19 20 20 20 21 21 22 21
25 25 25 25 24 24 25 26 26 26 25 24 24 24 23 23 24 24 24 23 23 23 22 22 22 21 21 20 19 20 20 20 20 20 20 20 20 20
25 26 26 26 26 26 26 26 27 26 26 25 24 23 23 24 23 23 22 22 22 22 22 21 21 21 20 20 19 20 19 19 19 19 19 19 19 20
26 26 26 26 26 27 26 26 26 26 25 25 24 23 23 23 23 22 21 21 21 21 20 20 20 20 20 19 19 19 19 19 19 19 20 20 19 19
28 27 27 27 27 27 26 26 26 25 25 24 24 24 24 23 23 22 22 22 21 20 20 20 20 20 19 20 20 20 20 20 20 20 20 20 19 19
28 28 27 27 27 27 26 26 25 25 25 25 25 25 25 24 24 23 23 22 21 20 20 21 21 20 20 20 20 20 20 20 20 20 20 20 20 19
27 27 27 27 27 26 26 25 25 25 25 25 26 26 25 24 25 24 23 23 22 21 20 21 21 20 20 20 20 21 20 20 21 21 21 20 20 20
27 27 27 27 26 26 26 25 25 25 25 25 25 25 24 24 24 23 23 23 22 21 21 21 21 21 21 21 21 21 20 20 20 21 21 21 20 21
28 28 27 27 26 26 26 26 26 26 26 26 25 24 24 24 24 23 22 22 22 22 22 22 22 21 21 21 20 20 21 21 21 21 21 21 21 21
28 28 28 27 27 27 27 26 26 26 26 25 25 24 24 24 23 23 23 24 23 23 23 23 23 22 21 21 21 21 22 22 22 22 22 21 21 21
27 28 28 28 27 27 26 26 26 26 26 25 25 24 24 23 23 23 24 24 24 23 23 24 24 23 23 23 23 23 22 22 23 23 22 22 21 21
27 27 27 27 27 26 26 26 26 26 26 26 25 24 24 24 24 25 25 25 25 25 25 25 24 23 23 23 23 23 22 22 22 22 22 22 22 21
28 28 28 28 27 26 26 26 26 26 26 25 25 24 24 25 25 25 26 26 26 26 26 25 25 24 24 23 23 22 22 22 23 23 22 22 22 22
27 27 27 27 26 26 26 26 25 25 25 25 24 24 24 24 25 25 25 25 24 24 24 24 25 24 23 23 22 22 21 22 22 21 21 22 21 21
26 26 26 26 25 25 25 25 25 25 25 25 24 24 23 23 23 23 22 23 23 23 23 23 24 24 23 23 23 22 21 21 21 21 21 22 21 21
26 26 26 25 25 25 25 25 25 25 25 24 23 23 23 23 23 22 22 22 22 22 22 23 23 22 21 21 22 21 21 21 21 21 21 21 21 21
Wind_Direction
310 308 309 308 305 302 298 295 294 295 294 295 296 296 295 294 293 289 288 285 282 281 279 279 279 277 276 275 273 270 270 269 269 268 266 263 260 258
307 306 305 304 302 301 299 297 295 293 293 294 293 295 293 294 294 291 288 287 283 281 281 280 279 279 277 274 273 269 269 268 268 268 265 263 258 258
302 301 301 302 302 299 299 297 297 294 292 293 292 293 292 294 294 291 290 288 285 281 280 281 281 282 277 274 271 270 268 266 267 267 264 258 257 257
298 297 297 298 297 297 297 296 295 295 294 293 292 292 291 290 290 289 288 289 286 283 281 280 280 280 278 275 273 272 270 267 267 266 262 259 257 257
296 295 296 296 295 295 296 294 293 294 294 294 294 294 292 289 289 286 285 285 284 282 283 282 282 280 278 275 275 271 269 267 266 266 264 261 260 258
298 298 297 295 294 294 294 294 292 292 292 292 292 291 290 288 286 285 285 284 284 283 281 281 282 281 277 275 274 271 270 269 268 267 267 264 261 259
296 296 297 297 296 294 292 292 292 293 292 291 289 288 288 286 284 284 284 283 283 282 280 279 281 281 280 277 273 272 272 272 270 267 267 265 263 262
294 293 294 295 295 293 292 292 292 293 293 291 289 288 286 285 284 283 283 282 282 282 280 278 281 282 281 277 275 274 272 271 270 269 268 265 265 264
295 293 293 293 292 290 290 290 291 292 291 290 289 288 286 285 285 283 283 282 281 282 281 279 279 278 277 275 275 275 275 273 271 270 269 268 266 264
295 293 292 292 293 293 291 289 290 290 289 289 288 288 287 286 286 284 283 282 281 282 282 281 279 278 276 275 274 274 273 272 271 270 270 269 267 264
293 292 291 293 293 293 293 290 289 288 287 287 286 286 285 285 285 284 283 282 282 282 282 282 279 275 276 276 274 271 272 271 269 269 269 268 267 264
291 290 291 292 292 292 291 290 288 286 285 285 285 284 284 283 283 282 281 283 283 280 280 282 280 277 276 275 274 272 272 271 271 271 270 268 266 263
292 291 291 292 292 290 290 289 287 286 284 284 285 284 283 281 280 279 279 280 280 278 279 279 278 277 274 272 271 272 272 270 272 272 270 268 265 263
293 293 291 290 289 289 288 288 287 286 285 285 286 285 282 279 278 277 277 278 278 277 277 278 277 274 273 271 271 271 270 270 271 270 269 267 264 261
294 292 291 290 289 288 287 286 286 286 286 287 287 286 283 281 278 276 275 275 275 276 276 276 276 273 272 271 271 271 269 270 271 269 268 267 263 260
294 292 291 290 289 287 285 285 285 287 287 287 287 286 284 282 279 276 274 272 273 274 276 277 276 272 271 272 273 272 269 268 269 268 268 266 263 261
292 292 291 290 288 286 285 285 285 287 289 289 288 286 284 282 281 278 274 272 272 274 275 277 276 274 274 273 273 273 271 269 267 266 266 266 264 260
293 292 290 288 287 286 285 285 286 287 288 289 288 286 284 281 280 278 275 273 272 272 272 274 275 274 274 274 273 272 271 269 267 266 265 265 265 261
293 292 290 288 287 286 285 285 284 284 286 287 286 283 282 281 279 277 275 273 272 271 271 273 273 273 273 273 272 271 270 268 268 267 267 267 266 263
292 290 288 287 286 285 285 285 285 284 285 285 284 282 281 281 280 278 276 274 272 272 272 273 273 272 272 273 272 270 269 269 269 268 268 266 265 262
292 291 290 288 286 284 284 284 284 284 285 285 284 283 283 282 280 278 277 275 274 273 273 273 274 273 273 273 272 268 267 266 268 268 266 266 265 262
293 292 291 288 286 286 285 284 284 284 284 286 285 285 285 284 282 280 278 277 276 273 273 274 274 273 272 274 270 267 266 266 266 268 267 267 266 262
292 291 290 289 286 285 283 283 283 284 285 286 285 286 285 284 282 280 279 278 277 275 273 274 273 271 270 270 267 265 265 266 266 268 268 269 266 263
Height
5868 5867 5865 5863 5861 5860 5858 5857 5855 5854 5852 5850 5849 5847 5845 5844 5842 5840 5839 5837 5836 5835 5834 5833 5832 5831 5830 5829 5828 5828 5827 5826 5826 5825 5824 5824 5824 5824
5865 5863 5861 5859 5857 5855 5853 5852 5850 5849 5848 5846 5844 5842 5841 5839 5837 5835 5834 5832 5831 5830 5829 5827 5826 5825 5824 5823 5823 5822 5821 5820 5820 5819 5819 5819 5819 5819
5861 5859 5857 5855 5853 5851 5849 5847 5845 5844 5842 5841 5839 5837 5835 5834 5832 5830 5828 5827 5826 5824 5823 5822 5821 5819 5818 5817 5816 5816 5815 5814 5814 5813 5813 5813 5813 5813
5856 5854 5852 5850 5848 5846 5844 5842 5840 5838 5837 5835 5833 5831 5830 5828 5826 5824 5823 5822 5820 5819 5818 5816 5815 5813 5812 5811 5810 5809 5809 5808 5808 5807 5807 5807 5807 5807
5851 5849 5847 5845 5843 5841 5839 5837 5834 5833 5831 5830 5828 5826 5824 5822 5820 5818 5817 5816 5815 5813 5812 5810 5809 5807 5806 5804 5803 5803 5802 5802 5801 5801 5801 5801 5801 5801
5845 5843 5841 5839 5837 5835 5833 5831 5829 5827 5825 5823 5821 5819 5818 5815 5814 5813 5811 5810 5808 5807 5805 5804 5803 5801 5800 5798 5797 5797 5796 5795 5795 5795 5795 5795 5795 5795
5839 5837 5835 5832 5830 5828 5826 5824 5822 5820 5818 5816 5814 5813 5811 5809 5808 5806 5805 5804 5802 5800 5799 5798 5797 5795 5794 5792 5792 5791 5790 5790 5789 5789 5789 5789 5789 5789
5832 5829 5827 5825 5823 5821 5819 5817 5815 5813 5811 5809 5807 5805 5804 5803 5801 5799 5798 5797 5796 5795 5793 5792 5791 5790 5788 5787 5786 5785 5784 5784 5783 5783 5783 5782 5783 5783
5825 5822 5820 5818 5816 5814 5812 5810 5808 5806 5804 5802 5800 5798 5797 5795 5794 5792 5791 5790 5789 5787 5786 5785 5784 5783 5782 5781 5780 5779 5778 5778 5777 5777 5776 5776 5776 5776
5818 5815 5813 5811 5808 5806 5804 5802 5800 5798 5796 5794 5793 5791 5789 5788 5787 5786 5784 5783 5781 5780 5779 5778 5777 5776 5775 5774 5773 5773 5772 5772 5771 5771 5770 5770 5770 5770
5810 5808 5805 5803 5801 5798 5796 5794 5792 5790 5789 5787 5785 5784 5782 5781 5779 5778 5777 5776 5775 5774 5772 5771 5770 5770 5769 5768 5767 5767 5766 5765 5765 5764 5764 5764 5764 5763
5803 5800 5798 5795 5793 5790 5788 5786 5784 5782 5781 5780 5778 5776 5775 5773 5772 5771 5770 5769 5768 5767 5766 5765 5764 5763 5762 5762 5761 5761 5760 5759 5758 5758 5758 5757 5757 5757
5795 5792 5789 5787 5785 5782 5780 5778 5776 5775 5773 5772 5770 5769 5767 5766 5764 5763 5763 5762 5761 5760 5759 5758 5757 5756 5756 5755 5754 5754 5753 5752 5752 5751 5751 5751 5751 5751
5787 5784 5781 5779 5777 5774 5773 5771 5769 5767 5766 5764 5763 5761 5759 5758 5757 5756 5755 5755 5754 5753 5752 5751 5750 5750 5749 5749 5748 5748 5747 5746 5746 5745 5745 5745 5745 5745
5779 5776 5773 5771 5769 5767 5765 5763 5761 5760 5758 5756 5755 5753 5751 5750 5749 5748 5748 5747 5746 5745 5745 5744 5743 5742 5742 5742 5742 5741 5741 5740 5739 5739 5739 5738 5738 5739
5770 5768 5765 5763 5761 5759 5757 5755 5754 5752 5750 5749 5747 5745 5744 5742 5741 5741 5740 5739 5739 5738 5737 5736 5736 5735 5735 5735 5735 5734 5734 5734 5733 5732 5732 5732 5732 5732
5762 5759 5757 5754 5753 5751 5749 5748 5746 5745 5743 5741 5739 5737 5736 5735 5734 5733 5732 5732 5731 5731 5730 5729 5728 5728 5728 5728 5728 5727 5727 5727 5726 5726 5726 5725 5725 5726
5753 5750 5748 5746 5744 5742 5741 5740 5738 5736 5735 5733 5731 5730 5728 5727 5726 5725 5724 5724 5723 5723 5722 5721 5721 5720 5720 5720 5720 5720 5719 5719 5719 5719 5719 5719 5719 5719
5745 5742 5740 5737 5736 5734 5733 5731 5730 5728 5726 5725 5723 5722 5721 5720 5719 5718 5717 5716 5715 5714 5714 5713 5713 5713 5713 5713 5712 5712 5712 5712 5711 5711 5712 5712 5712 5712
5736 5733 5731 5729 5727 5725 5724 5723 5721 5720 5718 5717 5715 5714 5713 5711 5710 5709 5708 5707 5707 5706 5705 5705 5705 5705 5705 5705 5705 5704 5704 5704 5704 5704 5704 5704 5705 5705
5727 5724 5722 5720 5718 5717 5716 5714 5713 5712 5710 5709 5707 5706 5704 5703 5701 5700 5699 5699 5698 5698 5697 5697 5697 5697 5697 5697 5697 5697 5697 5696 5696 5697 5697 5698 5698 5698
5718 5716 5714 5711 5710 5708 5707 5706 5705 5704 5702 5701 5699 5698 5696 5695 5693 5692 5691 5691 5690 5690 5689 5689 5689 5689 5689 5689 5689 5689 5689 5689 5689 5689 5690 5691 5691 5691
5710 5708 5706 5703 5702 5700 5699 5698 5697 5695 5694 5693 5691 5690 5688 5687 5686 5685 5684 5683 5683 5682 5682 5681 5681 5681 5681 5681 5682 5682 5682 5682 5682 5683 5683 5683 5683 5684